Location: Beugn�tre
(50.1309°N, 2.8775°E)
Time: 14:00:19
(UTC+00:00)

Daily predictions for brighter satellites

Satellite Brightness Start Highest point End
(mag) Time Altitude Azimuth Time Altitude Azimuth Time Altitude Azimuth
Cosmos 304 Rocket 3.8 18:44:21 10° NNW 18:49:11 90° SSW 18:53:58 10° SSE
COSMO-SKYMED 1 4.2 18:45:32 10° N 18:49:37 40° WNW 18:53:41 10° SW
Cosmos 1709 Rocket 4.2 18:43:35 10° N 18:49:41 53° ENE 18:55:40 10° SSE
STARLINK-1232 3.1 18:47:02 10° SW 18:50:03 52° SSE 18:53:07 10° ENE
STARLINK-1217 3.1 18:47:29 10° SW 18:50:31 52° SSE 18:53:34 10° ENE
Cosmos 2084 4.1 18:46:11 10° SW 18:50:38 64° NW 18:55:06 10° NE
SeaSat 1 3.0 18:45:55 10° NNE 18:50:49 66° NW 18:55:41 10° SW
STARLINK-1208 3.1 18:47:54 10° SW 18:50:57 53° SSE 18:54:02 10° ENE
Cosmos 1953 4.2 18:49:35 10° ESE 18:51:21 13° E 18:53:07 10° ENE
STARLINK-1229 3.1 18:48:22 10° SW 18:51:25 53° SSE 18:54:28 10° ENE
STARLINK-1236 4.1 18:47:51 10° SW 18:51:40 41° SE 18:55:30 10° ENE
STARLINK-1116 4.0 18:47:46 10° WNW 18:51:45 57° SSW 18:55:43 10° SE
STARLINK-1271 3.1 18:48:49 10° SW 18:51:52 53° SSE 18:54:55 10° ENE
STARLINK-1270 3.1 18:49:16 10° SW 18:52:20 54° SSE 18:55:23 10° ENE
STARLINK-1154 3.0 18:49:43 10° SW 18:52:46 54° SSE 18:55:50 10° ENE
STARLINK-1101 3.8 18:49:02 10° WNW 18:53:10 69° NNE 18:57:19 10° E
STARLINK-1197 3.0 18:50:37 10° SW 18:53:40 55° SSE 18:56:45 10° ENE
STARLINK-1189 3.0 18:51:04 10° SW 18:54:07 55° SSE 18:57:11 10° ENE
SL-08 ROCKET BODY 4.5 18:48:23 10° N 18:54:35 86° E 19:00:37 10° S
Cosmos 1269 Rocket 4.3 18:49:39 10° S 18:54:40 46° ESE 18:59:44 10° NE
STARLINK-1187 2.9 18:51:52 10° SW 18:54:58 62° SSE 18:58:05 10° ENE
STARLINK-1188 3.0 18:51:58 10° SW 18:55:01 56° SSE 18:58:06 10° ENE
STARLINK-1198 3.0 18:51:58 10° SW 18:55:02 56° SSE 18:58:06 10° ENE
MONITOR-E 4.4 18:52:54 10° SE 18:55:22 37° ENE 18:57:52 10° N
STARLINK-1235 2.9 18:52:32 10° WSW 18:55:39 68° SSE 18:58:48 10° ENE
CZ-4C R/B 3.9 18:50:46 10° W 18:55:48 33° NNW 19:01:44 10° NE
STARLINK-1199 3.0 18:53:53 10° SW 18:56:58 58° SSE 19:00:05 10° ENE
STARLINK-1191 3.0 18:54:20 10° SW 18:57:25 58° SSE 19:00:32 10° ENE
STARLINK-1210 3.0 18:54:47 10° SW 18:57:52 59° SSE 19:00:59 10° ENE
STARLINK-1102 3.7 18:54:00 10° WNW 18:58:09 72° NNE 19:02:18 10° E
STARLINK-1221 3.0 18:55:14 10° SW 18:58:19 59° SSE 19:01:26 10° ENE
STARLINK-1219 3.0 18:55:41 10° SW 18:58:47 60° SSE 19:01:54 10° ENE
STARLINK-1222 3.0 18:56:08 10° SW 18:59:14 60° SSE 19:02:21 10° ENE
ISS -3.6 18:55:59 10° WNW 18:59:21 71° N 19:02:41 10° E
STARLINK-1211 2.9 18:56:36 10° SW 18:59:40 60° SSE 19:02:47 10° ENE
STARLINK-1214 2.9 18:57:02 10° SW 19:00:07 61° SSE 19:03:15 10° ENE
YAOGAN 1 4.4 18:56:20 10° SSW 19:00:18 35° W 19:04:19 10° NNW
STARLINK-1245 2.9 18:57:30 10° SW 19:00:35 61° SSE 19:03:41 10° ENE
Cosmos 2297 3.7 18:55:07 10° NNW 19:00:49 81° ENE 19:06:32 10° SSE
STARLINK-1094 4.2 18:57:03 10° WNW 19:00:59 51° SSW 19:04:54 10° SE
STARLINK-1238 2.9 18:57:54 10° SW 19:00:59 62° SSE 19:04:07 10° ENE
STARLINK-1269 3.9 18:57:33 10° SW 19:01:27 46° SSE 19:05:23 10° ENE
STARLINK-1205 2.9 18:58:48 10° SW 19:01:54 62° SSE 19:05:00 10° ENE
BREEZE-M DEB (TANK) 4.2 18:52:08 10° W 19:02:00 88° S 19:05:20 10° E
STARLINK-1204 2.9 18:59:17 10° SW 19:02:22 63° SSE 19:05:28 10° ENE
Cosmos 1455 Rocket 3.0 18:58:17 10° S 19:02:34 66° E 19:06:56 10° NNE
Cosmos 2084 Rocket 4.2 18:58:34 10° NW 19:02:51 43° NE 19:06:58 11° ESE
STARLINK-1111 3.7 18:59:00 10° WNW 19:03:09 74° NNE 19:07:06 11° ESE
STARLINK-1117 4.3 19:01:55 10° WNW 19:05:49 48° SSW 19:09:43 10° SE
STARLINK-1200 3.8 19:02:18 10° SW 19:06:15 50° SSE 19:10:13 10° ENE
S3M 4.1 19:00:11 10° S 19:06:34 89° W 19:13:02 10° N
Cosmos 2237 Rocket 2.5 19:01:26 10° SW 19:07:03 75° WNW 19:12:44 10° NNE
Cosmos 1892 Rocket 4.2 19:03:24 10° NNW 19:07:51 63° W 19:12:16 10° S
STARLINK-1073 3.7 19:03:59 10° WNW 19:08:09 77° NNE 19:11:53 12° ESE
CZ-2C R/B 3.8 19:04:24 10° NE 19:08:17 21° E 19:12:07 10° SE
Cosmos 1626 Rocket 3.8 19:04:20 10° N 19:08:39 51° ENE 19:12:54 10° SSE
NOSS 2-1 (C) 4.2 19:06:51 10° WSW 19:10:08 45° NW 19:13:54 10° NE
STARLINK-1078 4.4 19:06:21 10° WNW 19:10:15 45° SSW 19:14:07 10° SE
Cosmos 1805 3.8 19:06:55 10° SSW 19:10:47 63° WNW 19:14:41 10° N
STARLINK-1192 3.8 19:07:01 10° SW 19:10:59 53° SSE 19:14:58 10° ENE
Cosmos 2278 Rocket 4.2 19:06:40 10° NW 19:11:31 30° WSW 19:16:22 10° SSW
Meteor 2-5 Rocket 4.5 19:06:36 10° NNW 19:12:10 58° W 19:17:36 10° S
STARLINK-1121 3.6 19:08:57 10° WNW 19:13:07 80° NNE 19:16:39 14° ESE
NOSS 2-1 (D) 4.4 19:11:06 10° WSW 19:14:22 41° NW 19:18:06 10° NE
Cosmos 292 Rocket 4.5 19:10:10 10° N 19:14:38 37° ENE 19:18:32 13° ESE
STARLINK-1108 4.5 19:11:15 10° WNW 19:15:05 42° SW 19:18:55 10° SE
STARLINK-1244 3.7 19:11:54 10° SW 19:15:54 56° SSE 19:19:55 10° ENE
Cosmos 1602 Rocket 3.9 19:12:18 10° N 19:16:39 48° ENE 19:20:57 10° SSE
ARGOS 3.1 19:11:19 10° SSE 19:16:43 79° ENE 19:22:07 10° NNW
STARLINK-1106 3.6 19:13:55 10° WNW 19:18:05 83° NNE 19:21:25 15° ESE
Okean 1-7 Rocket 4.4 19:15:34 10° NNW 19:19:52 54° W 19:24:09 10° S
STARLINK-1138 3.6 19:16:28 10° SW 19:20:29 60° SSE 19:24:32 10° ENE
STARLINK-1234 2.7 19:18:25 10° WSW 19:21:24 83° NNW 19:24:04 12° ENE
MOS 1 Rocket 4.4 19:18:15 10° NNE 19:22:46 29° E 19:27:24 10° SSE
Cosmos 494 Rocket 4.1 19:17:51 10° SSW 19:23:00 80° WNW 19:28:15 10° NNE
STARLINK-1112 3.6 19:18:56 10° WNW 19:23:06 86° NNE 19:26:14 17° ESE
Meteor 1-24 Rocket 4.2 19:17:58 10° NNW 19:23:27 61° W 19:28:44 10° S
USA 186 2.0 19:20:29 10° S 19:23:55 77° WSW 19:27:18 10° NNW
STARLINK-1143 3.6 19:21:20 10° SW 19:25:23 63° SSE 19:29:16 11° ENE
MetOp-A 4.3 19:22:11 10° SSE 19:27:25 58° ENE 19:32:40 10° N
STARLINK-1128 3.6 19:23:54 10° WNW 19:28:04 89° NE 19:31:01 19° ESE
CZ-2C R/B 3.1 19:24:06 10° SSE 19:29:08 80° WSW 19:33:59 10° NNW
Cosmos 1544 Rocket 3.6 19:25:46 10° S 19:30:10 87° W 19:34:38 10° N
Cosmos 1437 4.1 19:28:33 10° NNE 19:30:54 20° ENE 19:31:24 19° E
Cosmos 1470 2.7 19:28:21 10° S 19:32:10 63° E 19:36:02 10° NNE
STARLINK-1113 3.6 19:28:53 10° WNW 19:33:02 87° SSW 19:35:47 21° ESE
STARLINK-1241 3.5 19:29:39 10° WSW 19:33:41 70° SSE 19:37:13 13° ENE
Cosmos 1825 Rocket 4.4 19:31:38 10° N 19:35:38 32° ENE 19:37:53 20° ESE
SPOT 3 Rocket 3.5 19:30:40 10° SSE 19:35:51 73° ENE 19:41:05 10° NNW
IRIDIUM 103 4.4 19:31:22 10° N 19:36:31 55° E 19:41:37 10° SSE
STARLINK-1119 3.6 19:33:51 10° WNW 19:38:01 83° SSW 19:40:34 23° ESE
STARLINK-1239 3.5 19:34:33 10° WSW 19:38:36 74° SSE 19:41:56 15° ENE
Cosmos 2369 Rocket 2.4 19:33:33 10° NNW 19:39:13 57° NE 19:43:14 19° SE
SJ-6B 3.2 19:37:58 10° S 19:42:01 68° WSW 19:46:10 10° NNW
STARLINK-1114 3.6 19:38:53 10° WNW 19:43:02 79° SSW 19:45:24 25° ESE
STARLINK-1240 3.5 19:39:16 10° WSW 19:43:19 78° SSE 19:46:29 16° ENE
Cosmos 1726 3.0 19:42:57 25° ESE 19:43:59 29° E 19:47:15 10° NNE
Aureole 2 Rocket 2.7 19:41:00 10° NNW 19:44:26 50° ENE 19:45:57 28° ESE
Ariane Rocket 4.1 19:40:20 10° S 19:45:10 44° W 19:50:02 10° NNW
Cosmos 1758 Rocket 3.9 19:41:18 10° N 19:45:30 45° ENE 19:47:54 23° SE
Cosmos 1758 3.3 19:42:03 10° S 19:46:09 82° E 19:50:16 10° NNE
STARLINK-1130 (DARKSAT) 3.6 19:43:51 10° WNW 19:48:00 75° SSW 19:50:10 27° SE
STARLINK-1216 3.5 19:44:00 10° WSW 19:48:04 82° SSE 19:51:02 18° ENE
CZ-2C R/B 3.7 19:43:54 10° NNE 19:48:40 67° ESE 19:53:21 10° S
ATLAS CENTAUR R/B 4.2 19:48:24 10° NW 19:50:09 12° NNW 19:51:50 10° NNE
STARLINK-1209 3.2 19:48:28 10° W 19:51:23 58° NNW 19:52:50 25° ENE
Cosmos 1953 Rocket 4.4 19:47:54 10° N 19:51:56 32° ENE 19:53:22 26° ESE
STARLINK-1237 3.5 19:48:46 10° WSW 19:52:50 85° SSE 19:55:38 20° ENE
STARLINK-1084 3.7 19:48:49 10° WNW 19:52:57 72° SSW 19:54:56 29° SE
STARLINK-1228 3.2 19:50:41 10° W 19:53:32 57° NNW 19:54:50 27° NE
Cosmos 2184 Rocket 4.0 19:48:18 10° N 19:54:37 63° ENE 19:59:37 16° SSE
IRIDIUM 106 4.2 19:49:35 10° N 19:54:51 77° E 20:00:04 10° S
Terra 3.8 19:53:53 13° ENE 19:54:57 14° NE 19:57:20 10° NNE
STARLINK-1202 3.5 19:53:30 10° WSW 19:57:34 89° SSE 20:00:11 21° ENE
STARLINK-1098 3.7 19:53:49 10° WNW 19:57:56 68° SSW 19:59:43 32° SE
Spot 2 Rocket 4.1 19:55:41 25° ESE 19:58:03 40° ENE 20:02:48 10° N
Cosmos 1606 Rocket 4.2 19:59:07 30° ESE 20:00:13 34° E 20:04:15 10° NNE
Cosmos 1943 Rocket 2.2 19:55:06 10° NNW 20:00:40 84° WSW 20:04:35 20° SSE
Meteor 1-21 Rocket 4.1 19:55:33 10° NNW 20:01:11 90° ESE 20:06:08 13° S
ERBS 4.1 19:58:57 10° WNW 20:01:58 29° NNW 20:04:36 12° NE
STARLINK-1123 3.8 19:58:47 10° WNW 20:02:54 64° SSW 20:04:30 34° SE
Cosmos 1943 3.8 20:01:04 19° SSE 20:04:17 32° ESE 20:09:17 10° NE
STARLINK-67 3.3 20:02:18 10° W 20:04:48 43° N 20:05:16 38° NNE
STARLINK-1246 3.5 20:00:42 10° WSW 20:04:48 86° NNW 20:07:11 24° ENE
SL-8 R/B 3.7 20:00:50 10° W 20:05:35 67° S 20:07:34 34° ESE
Meteor 2-10 4.2 20:01:22 10° S 20:06:35 57° E 20:12:02 10° NNE
STARLINK-1201 3.3 20:04:13 10° W 20:07:27 63° NNW 20:08:41 33° NE
STARLINK-1097 3.8 20:03:46 10° WNW 20:07:51 60° SSW 20:09:16 37° SSE
Cosmos 1626 4.4 20:04:57 10° NW 20:08:01 25° W 20:11:03 10° SW
Resurs 1-3 3.8 20:05:32 16° S 20:09:01 72° WSW 20:13:26 10° NNW
ATLAS 2AS CENTAUR R/B 3.3 20:02:35 10° NW 20:10:12 53° NE 20:14:21 26° E
STARLINK-1224 3.6 20:07:49 10° WSW 20:11:54 81° NNW 20:13:57 28° ENE
STARLINK-1099 3.9 20:08:46 10° WNW 20:12:50 56° SSW 20:14:04 39° SSE
STARLINK-1203 3.6 20:09:13 10° WSW 20:13:12 77° NNW 20:15:06 29° ENE
Cosmos 2154 Rocket 4.1 20:09:23 10° N 20:15:42 59° ENE 20:18:59 29° SE
USA 234 3.2 20:09:13 10° ENE 20:15:46 69° SE 20:22:17 10° SW
H-2A R/B 3.8 20:11:15 10° SSW 20:15:55 31° W 20:20:31 10° NNW
STARLINK-1225 3.6 20:12:25 10° WSW 20:16:30 78° NNW 20:18:23 31° ENE
USA 245 4.4 20:15:17 34° ESE 20:17:15 53° ENE 20:23:00 10° N
STARLINK-1104 4.0 20:13:45 10° WNW 20:17:48 53° SSW 20:18:51 40° SSE
Aureole 3 3.9 20:13:56 10° SSW 20:18:03 74° WNW 20:23:24 10° N
DMSP B5D2-2 4.0 20:12:57 10° NNE 20:18:12 86° ESE 20:23:26 10° SSW
Resurs 01 Rocket 1.6 20:16:28 26° S 20:18:56 80° WSW 20:23:22 10° NNW
Cosmos 1328 3.8 20:15:51 10° N 20:19:49 58° ENE 20:20:25 51° ESE
STARLINK-1233 3.4 20:17:23 10° W 20:20:29 55° N 20:21:02 46° NNE
STARLINK-1212 3.4 20:17:52 10° W 20:20:57 55° N 20:21:27 47° NNE
Cosmos 921 Rocket 4.4 20:17:54 10° N 20:21:14 22° NE 20:21:21 22° ENE
STARLINK-1230 3.6 20:17:11 10° WSW 20:21:16 76° NNW 20:22:57 34° ENE
STARLINK-1105 3.4 20:18:17 10° W 20:21:23 55° N 20:21:53 47° NNE
SL-16 R/B 2.9 20:16:06 10° SW 20:21:39 55° NW 20:27:14 10° NNE
STARLINK-1206 3.4 20:18:47 10° W 20:21:52 54° N 20:22:19 48° NNE
STARLINK-1247 3.4 20:19:14 10° W 20:22:18 54° N 20:22:44 48° NNE
STARLINK-1227 3.4 20:19:38 10° W 20:22:45 54° N 20:23:12 48° NNE
STARLINK-1144 4.1 20:18:45 10° WNW 20:22:46 49° SSW 20:23:38 41° S
Abrixas rocket 4.4 20:20:07 10° SW 20:20:46 15° SW 20:20:46 15° SW
STARLINK-1218 3.4 20:20:08 10° W 20:23:12 54° N 20:23:36 49° NNE
Cosmos 2228 3.1 20:22:39 48° SE 20:23:16 53° E 20:27:29 10° NNE
STARLINK-1226 3.4 20:20:35 10° W 20:23:39 54° N 20:24:02 49° NNE
STARLINK-1254 3.4 20:21:00 10° W 20:24:06 54° N 20:24:30 49° NNE
STARLINK-1215 3.4 20:21:30 10° W 20:24:34 53° N 20:24:54 50° NNE
STARLINK-1231 3.4 20:21:56 10° W 20:25:00 53° N 20:25:19 50° NNE
STARLINK-1232 3.4 20:22:51 10° W 20:25:55 53° N 20:26:12 50° NNE
STARLINK-1243 3.7 20:22:01 10° WSW 20:26:06 73° NNW 20:27:36 37° ENE
STARLINK-1217 3.4 20:23:18 10° W 20:26:23 53° N 20:26:38 50° NNE
STARLINK-1208 3.4 20:23:43 10° W 20:26:48 53° N 20:27:05 50° NNE
Cosmos 1953 2.6 20:23:15 10° SSW 20:27:11 66° WNW 20:31:10 10° N
STARLINK-1229 3.4 20:24:12 10° W 20:27:16 52° N 20:27:29 51° N
STARLINK-1103 4.1 20:23:44 10° WNW 20:27:43 46° SSW 20:28:25 42° S
STARLINK-1271 3.4 20:24:38 10° W 20:27:43 52° N 20:27:56 51° N
STARLINK-1270 3.4 20:25:07 10° W 20:28:11 52° N 20:28:22 51° N
STARLINK-1154 3.4 20:25:34 10° W 20:28:38 52° N 20:28:49 51° N
STARLINK-1197 3.5 20:26:28 10° W 20:29:32 52° N 20:29:41 51° N
STARLINK-1189 3.5 20:26:56 10° W 20:29:59 52° N 20:30:06 51° N
Cosmos 1992 Rocket 4.3 20:25:12 10° NNW 20:30:21 62° WSW 20:33:07 27° S
STARLINK-1187 3.5 20:27:48 10° W 20:30:52 50° N 20:30:59 50° N
STARLINK-1198 3.5 20:27:50 10° W 20:30:53 51° N 20:30:58 51° N
STARLINK-1236 3.7 20:26:49 10° W 20:30:54 71° NNW 20:32:12 41° ENE
STARLINK-1188 3.5 20:27:50 10° W 20:30:54 51° N 20:30:59 51° N
STARLINK-1235 3.6 20:28:31 10° W 20:31:36 49° N 20:31:42 49° N
STARLINK-1101 4.2 20:28:44 10° WNW 20:32:40 43° SW 20:33:11 41° SSW
STARLINK-1199 3.5 20:29:46 10° W 20:32:51 51° N 20:32:54 51° N
STARLINK-1191 3.5 20:30:13 10° W 20:33:18 51° N 20:33:20 51° N
STARLINK-1210 3.5 20:30:41 10° W 20:33:46 51° N 20:33:46 51° N
Nadezhda 1 Rocket 4.0 20:29:47 21° S 20:34:11 68° E 20:40:32 10° NNE
STARLINK-1221 3.6 20:31:08 10° W 20:34:11 51° N 20:34:11 51° N
STARLINK-1219 3.6 20:31:36 10° W 20:34:38 51° N 20:34:38 51° N
STARLINK-1222 3.6 20:32:02 10° W 20:35:04 51° NNW 20:35:04 51° NNW
STARLINK-1211 3.6 20:32:30 10° W 20:35:30 50° NNW 20:35:30 50° NNW
STARLINK-1214 3.6 20:32:57 10° W 20:35:56 50° NNW 20:35:56 50° NNW
ISS -2.9 20:32:52 10° WNW 20:35:39 42° SW 20:35:39 42° SW
STARLINK-1245 3.6 20:33:25 10° W 20:36:20 50° NNW 20:36:20 50° NNW
STARLINK-1238 3.6 20:33:49 10° W 20:36:47 50° NNW 20:36:47 50° NNW
STARLINK-1102 4.3 20:33:43 10° WNW 20:37:37 40° SW 20:37:58 40° SSW
STARLINK-1205 3.7 20:34:44 10° W 20:37:36 49° NNW 20:37:36 49° NNW
STARLINK-1204 3.7 20:35:13 10° W 20:38:03 48° NNW 20:38:03 48° NNW
STARLINK-1269 3.8 20:36:45 10° W 20:40:49 67° NNW 20:41:42 49° NE
Cosmos 2058 Rocket 3.6 20:42:37 44° ENE 20:42:37 44° ENE 20:46:18 10° NNE
MetOp-B 4.1 20:40:10 37° S 20:42:24 83° WSW 20:47:48 10° NNW
STARLINK-1111 4.4 20:38:44 10° WNW 20:42:35 38° SW 20:42:45 38° SSW
Cosmos 1603 3.5 20:37:42 10° SSW 20:43:20 76° ESE 20:48:57 10° NNE
Cosmos 1703 3.3 20:39:28 10° NNW 20:43:24 76° W 20:43:49 67° SSW
SPOT 5 3.3 20:44:26 38° ENE 20:44:26 38° ENE 20:48:14 10° N
Cosmos 2251 Rocket 3.6 20:38:54 10° SSW 20:44:16 79° WNW 20:49:42 10° NNE
Meteor 1-16 Rocket 4.1 20:40:19 15° SSW 20:44:44 84° WNW 20:50:16 10° NNE
STARLINK-1200 3.8 20:41:35 10° W 20:45:39 65° NNW 20:46:21 53° NE
CZ-4C R/B 4.3 20:41:09 10° NW 20:46:15 26° N 20:52:06 10° ENE
IGS 5A 3.4 20:49:02 72° ENE 20:49:02 72° ENE 20:53:07 10° N
CZ-2C R/B 2.9 20:43:54 10° N 20:49:03 64° WNW 20:54:09 10° SSW
ERS-1 Rocket 3.1 20:48:38 53° E 20:49:07 55° ENE 20:54:02 10° N
Landsat 7 3.7 20:49:40 65° SE 20:50:18 78° ENE 20:55:05 10° NNW
STARLINK-1192 3.9 20:46:22 10° W 20:50:25 63° N 20:50:56 57° NNE
STARLINK-1244 3.9 20:51:19 10° W 20:55:22 62° N 20:55:40 60° NNE
STARLINK-1138 3.9 20:55:52 10° W 20:59:55 61° N 21:00:03 60° N
Cosmos 1656 Rocket 3.7 20:55:09 10° NNW 21:00:51 78° WSW 21:02:03 56° S
MOS 1 Rocket 4.4 20:56:11 10° N 21:01:10 49° WNW 21:06:21 10° SW
Meteor 1-11 4.3 20:56:55 10° NNW 21:02:44 75° W 21:04:29 46° S
STARLINK-1143 4.0 21:00:48 10° W 21:04:46 60° NNW 21:04:46 60° NNW
Aureole 1 Rocket 4.3 21:01:51 35° S 21:05:07 62° ESE 21:11:32 10° NNE
CARTOSAT-1 3.9 21:07:29 56° NNE 21:07:29 56° NNE 21:11:08 10° N
Cosmos 1726 Rocket 4.0 21:10:44 54° WSW 21:11:19 60° WNW 21:15:44 10° N
STARLINK-1241 4.2 21:09:03 10° W 21:12:34 53° NW 21:12:34 53° NW
COSMOS 2455 3.1 21:08:25 10° NNW 21:14:22 56° NE 21:15:09 52° ENE
STARLINK-1239 4.4 21:14:03 10° W 21:17:22 49° NW 21:17:22 49° NW
Cosmos 1726 4.3 21:17:22 17° WSW 21:19:12 25° WNW 21:22:21 10° NNW
In-Cosmos 22 Rocket 4.4 21:14:27 10° N 21:20:10 57° ENE 21:20:10 57° ENE
Cosmos 2341 Rocket 4.0 21:14:59 10° N 21:21:22 84° W 21:22:43 59° S
Cosmos 1461 3.7 21:17:10 10° NW 21:20:56 50° N 21:20:56 50° N
Cosmos 2369 Rocket 3.7 21:18:06 10° NW 21:22:54 28° WSW 21:25:03 22° SW
Cosmos 1908 4.5 21:24:02 40° WNW 21:24:02 40° WNW 21:27:22 10° N
NOSS 3-4 (A) 3.7 21:21:49 10° NW 21:28:45 81° SW 21:30:09 62° SSE
NOSS 3-4 (C) 3.7 21:21:55 10° NW 21:28:51 82° SW 21:30:14 62° SSE
ATLAS CENTAUR R/B 4.0 21:29:04 10° NNW 21:30:48 12° NNE 21:31:52 11° NNE
Terra 2.2 21:32:46 60° N 21:32:46 60° N 21:36:43 10° NNW
NOSS 3-3 (A) 4.3 21:33:19 10° SW 21:39:17 67° NW 21:46:08 10° NE
NOSS 3-3 (C) 4.2 21:33:25 10° SW 21:39:23 68° NW 21:46:14 10° NE
SPOT 1/Viking Rocket 4.2 21:41:28 45° WSW 21:41:52 46° W 21:46:54 10° NNW
Cosmos 1943 Rocket 4.5 21:40:34 10° WNW 21:43:33 15° W 21:46:08 11° SW
Cosmos 1943 3.9 21:42:37 10° SW 21:48:08 51° NW 21:53:42 10° NNE
Cosmos 2218 Rocket 3.8 21:42:16 10° N 21:48:27 85° W 21:48:36 84° SW
Cosmos 1140 Rocket 4.4 21:56:03 41° NNE 21:56:03 41° NNE 21:59:23 10° NNE
USA 234 3.7 21:52:21 10° ENE 21:58:46 61° NNW 22:05:10 10° W
Cosmos 2181 Rocket 4.0 22:00:17 73° WSW 22:00:35 74° W 22:06:50 10° N
ATLAS 2AS CENTAUR R/B 3.1 21:53:58 10° NW 22:01:18 54° WSW 22:01:48 53° SW
Cosmos 407 Rocket 4.2 22:06:47 51° NNW 22:06:47 51° NNW 22:11:04 10° NNE
Cosmos 1697 Rocket 3.9 22:05:25 10° NNW 22:10:12 33° NE 22:10:12 33° NE
Mayak 1.1 22:14:16 10° NNE 22:15:32 19° NNE 22:15:32 19° NNE
Cosmos 1980 Rocket 3.6 22:30:59 10° NNW 22:35:28 30° NE 22:35:28 30° NE
CZ-4C R/B 3.7 22:30:17 10° NW 22:36:35 41° NNE 22:38:44 34° ENE
Nadezhda 3 Rocket 4.5 22:38:52 55° NNE 22:38:52 55° NNE 22:43:46 10° NNE
COSMOS 2455 4.3 22:54:42 10° NW 22:58:18 29° W 22:58:18 29° W
Terra 4.4 23:11:38 14° WNW 23:11:38 14° WNW 23:13:02 10° NW
ATLAS CENTAUR R/B 4.3 23:07:23 10° NNW 23:08:02 14° NNW 23:08:02 14° NNW
ATLAS 5 CENTAUR R/B 4.1 23:20:05 18° NNE 23:20:05 18° NNE 23:21:33 10° NE
Cosmos 1833 Rocket 4.4 23:28:31 25° NE 23:28:31 25° NE 23:30:54 10° NE
USA 234 4.0 23:35:02 10° ENE 23:41:17 49° N 23:47:31 10° WNW
Mayak 1.8 23:51:29 10° NNW 23:52:06 12° NW 23:52:06 12° NW
SL-16 R/B 4.1 23:52:44 26° ENE 23:53:39 26° NE 23:58:41 10° N
